www.pogodaiklimat.ru
ПОГОДА в Хейгерстауне
Время
и дата
11:53 24.09
12:53 24.09
13:53 24.09
14:53 24.09
15:53 24.09
16:53 24.09
17:53 24.09
18:53 24.09
19:53 24.09
20:53 24.09
21:53 24.09
22:53 24.09
23:53 24.09
00:53 25.09
01:53 25.09
02:53 25.09
03:53 25.09
04:53 25.09
05:53 25.09
06:53 25.09
07:53 25.09
08:53 25.09
09:53 25.09
10:53 25.09
11:36 25.09
11:43 25.09
11:51 25.09
11:53 25.09
12:00 25.09
12:08 25.09
12:53 25.09
13:03 25.09
13:24 25.09
13:53 25.09
14:53 25.09
15:53 25.09
16:53 25.09
17:53 25.09
18:53 25.09
19:53 25.09
20:53 25.09
21:53 25.09
22:53 25.09
23:53 25.09
00:53 26.09
01:53 26.09
02:53 26.09
03:53 26.09
Ветер
(напр.,м/с)
Видим. Явления Облачность Т
(С)
Тd
(С)
f
(%)
Тe
(С)
Тes
(С)
Комфортность P
(гПа)
Po
(гПа)
Тmin
(С)
Tmax
(С)
R
(мм)
R24
(мм)
S
(см)
16 км ясно +17.2 +4.4 43 +17 +33 опасность
простуды
1019.4 992.9
ЮЗ 3 16 км ясно +18.3 +4.4 40 +19 +29 1018.5 991.9 +8.9 +18.3
штиль 0 16 км ясно +18.3 +5.6 43 +18 +35 опасность
простуды
1017.1 990.6
ЮЗ 4 16 км ясно +20.0 +6.1 40 +21 +27 комфорт 1016.1 989.6
ЮЗ 4 16 км 10/0 2700 m
[Ac]
+19.4 +6.1 42 +20 +21 1015.7 989.3
Ю 4 16 км 5/0 2400 m
[Ac]
+18.9 +7.8 48 +19 +21 1015.4 989.0
Ю 3 16 км ясно +17.8 +7.8 52 +18 +19 1015.1 988.6
Ю 3 16 км ясно +16.7 +8.3 58 +17 +17 1014.8 988.3 +16.1 +20.6
ЮВ 3 16 км 2/0 2250 m
[Ac]
+15.6 +9.4 67 +15 +15 1014.8 988.3
Ю 3 16 км ясно +14.4 +9.4 72 +14 +14 1014.6 988.3
ЮВ 2 16 км 10/10 1950 м +15.6 +9.4 67 +16 +16 1014.1 987.6
ЮВ 4 16 км 10/0 2100 m
[Ac]
+15.0 +9.4 69 +14 +14 1013.5 987.3
ЮВ 2 16 км 10/10 1950 м +14.4 +10.0 75 +14 +14 1012.7 986.3
штиль 0 16 км 10/0 2100 m
[Ac]
+14.4 +10.0 75 +14 +14 1012.1 985.7 +13.9 +16.7
штиль 0 16 км 10/10 1950 м +14.4 +10.0 75 +14 +14 1011.6 985.3
штиль 0 16 км 10/0 2100 m
[Ac]
+14.4 +10.6 78 +14 +14 1011.0 985.0
Ю 2 16 км 8/5 1350 m
[Ac]
+13.9 +10.6 80 +13 +13 1010.7 984.3
Ю 3 16 км ясно +13.9 +10.6 80 +13 +13 1010.2 984.0
Ю 4 16 км ясно +13.9 +10.6 80 +12 +12 1009.7 983.3
Ю 3 16 км 10/0 3600 m
[Ac]
+14.4 +11.1 81 +13 +13 1009.1 983.0 +13.9 +15.0
СЗ 5 16 км 10/2 1230 m
[Ac]
+13.3 +11.1 87 +11 +11 1009.9 983.7
ЮВ 2 16 км 8/0 3300 m
[Ac]
+13.9 +12.2 89 +13 +14 1008.6 982.4
Ю 5 16 км 8/0 2100 m
[Ac]
+15.0 +13.3 90 +14 +15 1007.6 981.4 1.5
Ю 6 16 км 8/0 2850 m
[Ac Cb]
+18.9 +13.9 73 +19 +21 1006.3 980.4
С 4 0 м гроза, слабый дождь 8/8 1800 м +16.7 +13.9 84 +16 +18 981.7
нст 2 2 км гроза, сильный дождь, дымка 10/10 900 м +16.7 +14.4 86 +17 +17 981.0
ЮВ 5 2 км гроза со слабым дождем, дымка 10/10 900 м +17.0 +14.0 82 +16 +16 980.4
ЮВ 4 4 км гроза со слабым дождем, дымка 10/10 900 м +16.1 +14.4 90 +15 +15 1006.3 980.0
ЮВ 4 0 м гроза, слабый дождь 10/2 780 m
[Ac]
+16.1 +14.4 90 +15 +17 980.4
ЮВ 4 14 км 8/2 1200 m
[Ac]
+16.1 +15.0 93 +15 +18 981.0
ЮВ 3 16 км 5/0 2700 m
[Ac]
+17.2 +15.6 90 +17 +24 1005.9 979.7 +13.3 +19.4 3.8
Ю 5 11 км гроза со слабым дождем 10/0 3000 m
[Ac]
+17.8 +15.6 87 +17 +19 980.4
Ю 5 16 км 8/0 2700 m
[Ac]
+17.8 +14.4 80 +17 +20 979.1
Ю 4 16 км ясно +19.4 +15.6 79 +21 +29 комфорт 1005.0 979.1
Ю 5 16 км ясно +20.6 +15.6 73 +24 +29 комфорт 1004.0 978.1
Ю 4 16 км 2/0 2550 m
[Ac]
+22.2 +15.0 64 +26 +30 душно 1003.5 977.7 0.3
Ю 4 16 км ясно +21.1 +16.1 73 +24 +27 комфорт 1003.5 977.7
Ю 3 16 км ясно +20.0 +16.1 78 +23 +24 комфорт 1003.3 977.4
СЗ 4 16 км 8/0 2100 m
[Ac]
+17.8 +14.4 80 +18 +18 1005.0 979.1 +17.2 +22.8 0.5
З 5 16 км слабый дождь 8/2 1950 m
[Ac]
+18.3 +13.3 73 +18 +18 1005.9 979.7
З 3 16 км ясно +18.3 +12.2 68 +19 +19 1006.2 980.0
ЮЗ 3 16 км 5/0 3000 m
[Ac]
+17.2 +12.8 75 +17 +17 1006.9 980.7
ЮЗ 3 16 км 8/0 3000 m
[Ac]
+17.8 +11.7 67 +18 +18 1007.2 981.0
ЮЗ 2 16 км ясно +16.1 +12.8 81 +16 +16 1007.3 981.0
ЮЗ 2 16 км 5/0 2850 m
[Ac]
+15.6 +12.2 80 +16 +16 1007.3 981.4 +15.6 +18.3
Ю 2 16 км 2/2 1800 м +15.0 +11.7 81 +15 +15 1007.1 981.0
Ю 2 16 км 2/2 1800 м +15.0 +11.1 77 +15 +15 1006.9 980.7
ЮЗ 3 16 км ясно +16.1 +11.1 72 +16 +16 1006.9 981.0
Местоположение метеостанции Washington County Regional Airport: широта 39.7058 долгота -77.7300 высота над уровнем моря 214 м.
В архиве по умолчанию представлена погода в Хейгерстауне за последние 1-2 суток. Обновление информации о фактической погоде в базе происходит ежечасно! Архивные данные за месяц целиком и за предыдущие месяцы Вы можете получить, выбрав интересующий диапазон дат из раскрывающегося списка и нажав кнопку "Ввод!".
Внимание! Архив погоды МЕТАР в базе сайта по станциям, не включенным в климатический монитор, хранится не более 60 дней. Нет смысла пытаться выбрать более раннюю дату.
*Определитесь, кто Вы:
Внимание! Время в таблицах - местное (без учета летнего времени). Для получения всемирного времени необходимо вычесть поправку, которая равна -5 ч.
Смотрите также архив погоды в соседних городах и на ближайших метеорологических станциях:
Партнеры нашего сайта:      
Пояснения к столбцам:
  • Ветер - указаны скорость ветра в м/с - средняя за 10 мин, порывы в срок и между сроками (в фигурных скобках) и направление, откуда дует ветер: С - северный,
  • СВ - северо-восточный, В - восточный, ЮВ - юго-восточный, Ю - южный, ЮЗ - юго-западный, З - западный, СЗ - северо-западный.
  • Видимость - горизонтальная дальность видимости в метрах или километрах. При видимости от 1 до 10 км при отсутствии осадков обычно наблюдается дымка, при ухудшении видимости до 1 км и менее - туман. В сухую погоду видимость может ухудшаться дымом, пылью или мглою.
  • Явления - указаны атмосферные явления, наблюдавшиеся в срок или в последний час перед сроком; фигурными скобками обозначены явления, наблюдавшиеся между сроками (за 1-3 часа до срока); квадратными скобками обозначены град или гололедные отложения с указанием их диаметра в мм.
  • Облачность - указаны через наклонную черту общая и нижняя облачность в баллах и высота нижней границы облаков в метрах; квадратными скобками обозначены формы облаков: Ci - перистые, Cs - перисто-слоистые, Cc - перисто-кучевые, Ac - высококучевые, As - высокослоистые, Sc - слоисто-кучевые, Ns - слоисто-дождевые, Cu - кучевые, Cb - кучево-дождевые. Подробнее классификацию облаков см. в Атласе облаков (PDF).
  • T - Температура воздуха - температура, измеренная на высоте 2 м над землей.
  • Td - Температура точки росы - температура, при понижении до которой содержащийся в воздухе водяной пар достигнет насыщения.
  • f - Относительная влажность воздуха - влажноcть воздуха, измеренная на высоте 2 м над землей.
  • Te - Эффективная температура - температура, которую ощущает одетый по сезону человек в тени. Характеристика душности погоды. При расчете учитывается влияние влажности воздуха и скорости ветра на теплоощущения человека.
  • Tes - Эффективная температура на солнце - температура, которую ощущает человек, с поправкой на солнечный нагрев. Характеристика знойности погоды. Зависит от высоты солнца над горизонтом, облачности и скорости ветра. Ночью, в пасмурную погоду, а также при ветре 12 м/с и более поправка равна нулю.
  • P - Атмосферное давление - приведенное к уровню моря атмосферное давление.
  • Po - Атмосферное давление - измеренное на уровне метеостанции атмосферное давление.
  • Tmin - Минимальная температура - минимум температуры воздуха на высоте 2 м над землей.
  • Tmax - Максимальная температура - максимум температуры воздуха на высоте 2 м над землей.
  • R - Количество осадков - Количество выпавших осадков за период времени, мм. При наведении курсора мыши на число - период времени, за который выпало указанное количество осадков.
  • R24 - Количество осадков - Количество выпавших осадков за 24 часа, мм.
  • S - Снежный покров - Высота снежного покрова, см. При наведении курсора мыши на число - состояние снежного покрова и степень покрытия местности в баллах.